When you browse on this site, cookies collect data to enhance your experience and personalize the content and advertising you see.
Visit our Privacy Policy to learn more. By continuing to use the site, you agree to this use of cookies and data.
  • In Hungary
  • List of Countries
  • For 7 days
  • Water Temperature
  • Satellite Maps
  • Weather Map
  • News
  • Weather Widgets
  • user-avatar
    Login

    Hourly Weather Jedwabno

    Today, 26 April, Friday

    Time Temperature Precipitation Wind Pressure Humidity
    00:00 +14°C° 0 mm 2 mps 747 mmHg 93%
    01:00 +14°C° 0 mm 2 mps 747 mmHg 93%
    02:00 +14°C° 0 mm 2 mps 746 mmHg 93%
    03:00 +14°C° 0 mm 2 mps 746 mmHg 94%
    04:00 +13°C° 0 mm 2 mps 746 mmHg 95%
    05:00 +15°C° 0 mm 2 mps 746 mmHg 91%
    06:00 +16°C° 0 mm 3 mps 746 mmHg 87%
    07:00 +17°C° 0 mm 3 mps 746 mmHg 83%
    08:00 +19°C° 0 mm 3 mps 746 mmHg 75%
    09:00 +21°C° 0 mm 3 mps 746 mmHg 66%
    10:00 +24°C° 0 mm 3 mps 745 mmHg 57%
    11:00 +25°C° 0.1 mm 3 mps 745 mmHg 53%
    12:00 +26°C° 0.1 mm 3 mps 745 mmHg 49%
    13:00 +27°C° 0.1 mm 3 mps 745 mmHg 44%
    14:00 +26°C° 0 mm 2 mps 745 mmHg 46%
    15:00 +26°C° 0 mm 2 mps 744 mmHg 49%
    16:00 +25°C° 0 mm 1 mps 744 mmHg 51%
    17:00 +24°C° 0 mm 1 mps 744 mmHg 55%
    18:00 +23°C° 0 mm 2 mps 744 mmHg 60%
    19:00 +21°C° 0 mm 2 mps 743 mmHg 64%
    20:00 +20°C° 0 mm 2 mps 743 mmHg 69%
    21:00 +19°C° 0 mm 2 mps 743 mmHg 74%
    22:00 +18°C° 0 mm 2 mps 743 mmHg 79%
    23:00 +17°C° 0 mm 2 mps 743 mmHg 81%

    Tomorrow, 27 April, Saturday

    Time Temperature Precipitation Wind Pressure Humidity
    00:00 +16°C° 0 mm 2 mps 743 mmHg 83%
    01:00 +16°C° 0 mm 2 mps 743 mmHg 85%
    02:00 +15°C° 0 mm 2 mps 742 mmHg 86%
    03:00 +15°C° 0 mm 2 mps 742 mmHg 88%
    04:00 +15°C° 0 mm 2 mps 742 mmHg 89%
    05:00 +16°C° 0 mm 2 mps 742 mmHg 83%
    06:00 +18°C° 0 mm 2 mps 742 mmHg 77%
    07:00 +19°C° 0 mm 2 mps 742 mmHg 71%
    08:00 +21°C° 0.1 mm 2 mps 742 mmHg 66%
    09:00 +23°C° 0.1 mm 2 mps 742 mmHg 60%
    10:00 +25°C° 0.1 mm 2 mps 742 mmHg 54%
    11:00 +25°C° 1.1 mm 2 mps 742 mmHg 56%
    12:00 +25°C° 1.1 mm 3 mps 742 mmHg 57%
    13:00 +25°C° 1.1 mm 3 mps 742 mmHg 58%
    14:00 +23°C° 1.4 mm 4 mps 742 mmHg 64%
    15:00 +21°C° 1.4 mm 4 mps 743 mmHg 71%
    16:00 +20°C° 1.4 mm 5 mps 743 mmHg 77%
    17:00 +17°C° 0.7 mm 5 mps 743 mmHg 81%
    18:00 +16°C° 0.7 mm 5 mps 743 mmHg 86%
    19:00 +14°C° 0.7 mm 4 mps 744 mmHg 90%
    20:00 +13°C° 0.1 mm 4 mps 744 mmHg 90%
    21:00 +12°C° 0.1 mm 4 mps 744 mmHg 89%
    22:00 +12°C° 0.1 mm 4 mps 744 mmHg 89%
    23:00 +11°C° 0 mm 4 mps 744 mmHg 88%

    Day after tomorrow, 28 April, Sunday

    Time Temperature Precipitation Wind Pressure Humidity
    00:00 +10°C° 0 mm 4 mps 745 mmHg 88%
    01:00 +8°C° 0 mm 4 mps 745 mmHg 88%
    02:00 +8°C° 0 mm 4 mps 745 mmHg 86%
    03:00 +8°C° 0 mm 4 mps 745 mmHg 84%
    04:00 +8°C° 0 mm 4 mps 745 mmHg 83%
    05:00 +8°C° 0 mm 4 mps 745 mmHg 80%
    06:00 +10°C° 0 mm 4 mps 746 mmHg 77%
    07:00 +10°C° 0 mm 4 mps 746 mmHg 74%
    08:00 +9°C° 0 mm 5 mps 746 mmHg 73%
    09:00 +10°C° 0 mm 5 mps 746 mmHg 73%
    10:00 +10°C° 0 mm 5 mps 746 mmHg 72%
    11:00 +10°C° 0.2 mm 5 mps 747 mmHg 75%
    12:00 +9°C° 0.2 mm 5 mps 747 mmHg 78%
    13:00 +9°C° 0.2 mm 5 mps 747 mmHg 82%
    14:00 +9°C° 0.4 mm 5 mps 747 mmHg 84%
    15:00 +9°C° 0.4 mm 5 mps 747 mmHg 86%
    16:00 +8°C° 0.4 mm 5 mps 747 mmHg 88%
    17:00 +8°C° 0.7 mm 5 mps 747 mmHg 90%
    18:00 +8°C° 0.7 mm 5 mps 747 mmHg 91%
    19:00 +8°C° 0.7 mm 5 mps 747 mmHg 93%
    20:00 +8°C° 0.5 mm 5 mps 747 mmHg 93%
    21:00 +8°C° 0.5 mm 5 mps 747 mmHg 94%
    22:00 +8°C° 0.5 mm 4 mps 747 mmHg 95%
    23:00 +10°C° 0.8 mm 4 mps 747 mmHg 95%

    29 April, Monday

    Time Temperature Precipitation Wind Pressure Humidity
    00:00 +10°C° 0.8 mm 4 mps 747 mmHg 96%
    01:00 +10°C° 0.8 mm 3 mps 747 mmHg 96%
    02:00 +10°C° 0.1 mm 3 mps 747 mmHg 96%
    03:00 +10°C° 0.1 mm 3 mps 747 mmHg 96%
    04:00 +10°C° 0.1 mm 3 mps 747 mmHg 95%
    05:00 +11°C° 0 mm 4 mps 747 mmHg 93%
    06:00 +11°C° 0 mm 4 mps 748 mmHg 90%
    07:00 +12°C° 0 mm 4 mps 748 mmHg 87%
    08:00 +13°C° 0 mm 4 mps 748 mmHg 81%
    09:00 +14°C° 0 mm 4 mps 748 mmHg 75%
    10:00 +15°C° 0 mm 4 mps 748 mmHg 68%
    11:00 +16°C° 0 mm 5 mps 748 mmHg 63%
    12:00 +17°C° 0 mm 5 mps 748 mmHg 58%
    13:00 +20°C° 0 mm 5 mps 748 mmHg 53%
    14:00 +19°C° 0 mm 5 mps 748 mmHg 53%
    15:00 +19°C° 0 mm 5 mps 748 mmHg 53%
    16:00 +19°C° 0 mm 5 mps 748 mmHg 53%
    17:00 +17°C° 0 mm 4 mps 748 mmHg 57%
    18:00 +14°C° 0 mm 4 mps 748 mmHg 62%
    19:00 +13°C° 0 mm 3 mps 748 mmHg 66%
    20:00 +11°C° 0 mm 3 mps 748 mmHg 68%
    21:00 +10°C° 0 mm 3 mps 749 mmHg 70%
    22:00 +9°C° 0 mm 3 mps 749 mmHg 71%
    23:00 +8°C° 0 mm 3 mps 749 mmHg 73%

    30 April, Tuesday

    Time Temperature Precipitation Wind Pressure Humidity
    00:00 +8°C° 0 mm 2 mps 749 mmHg 75%
    01:00 +7°C° 0 mm 2 mps 749 mmHg 78%
    02:00 +6°C° 0 mm 2 mps 749 mmHg 79%
    03:00 +6°C° 0 mm 2 mps 749 mmHg 81%
    04:00 +5°C° 0 mm 2 mps 749 mmHg 83%
    05:00 +7°C° 0 mm 2 mps 749 mmHg 77%
    06:00 +8°C° 0 mm 3 mps 749 mmHg 70%
    07:00 +10°C° 0 mm 3 mps 749 mmHg 64%
    08:00 +11°C° 0 mm 3 mps 749 mmHg 57%
    09:00 +12°C° 0 mm 3 mps 749 mmHg 50%
    10:00 +14°C° 0 mm 3 mps 749 mmHg 44%
    11:00 +14°C° 0 mm 4 mps 749 mmHg 42%
    12:00 +15°C° 0 mm 4 mps 749 mmHg 40%
    13:00 +17°C° 0 mm 4 mps 748 mmHg 39%
    14:00 +15°C° 0 mm 4 mps 748 mmHg 40%
    15:00 +15°C° 0 mm 4 mps 748 mmHg 41%
    16:00 +15°C° 0 mm 4 mps 748 mmHg 42%
    17:00 +13°C° 0 mm 4 mps 748 mmHg 48%
    18:00 +12°C° 0 mm 3 mps 748 mmHg 55%
    19:00 +10°C° 0 mm 3 mps 748 mmHg 62%
    20:00 +9°C° 0 mm 3 mps 748 mmHg 66%
    21:00 +8°C° 0 mm 3 mps 748 mmHg 70%
    22:00 +7°C° 0 mm 2 mps 748 mmHg 75%
    23:00 +6°C° 0 mm 2 mps 748 mmHg 75%

    1 May, Wednesday

    Time Temperature Precipitation Wind Pressure Humidity
    00:00 +6°C° 0 mm 2 mps 748 mmHg 76%
    01:00 +5°C° 0 mm 2 mps 748 mmHg 77%
    02:00 +5°C° 0 mm 2 mps 748 mmHg 75%
    03:00 +6°C° 0 mm 1 mps 748 mmHg 74%
    04:00 +6°C° 0 mm 1 mps 747 mmHg 73%
    05:00 +8°C° 0 mm 1 mps 747 mmHg 66%
    06:00 +10°C° 0 mm 1 mps 748 mmHg 60%
    07:00 +12°C° 0 mm 1 mps 748 mmHg 54%
    08:00 +13°C° 0 mm 1 mps 747 mmHg 48%
    09:00 +14°C° 0 mm 1 mps 747 mmHg 42%
    10:00 +16°C° 0 mm 1 mps 747 mmHg 36%
    11:00 +16°C° 0 mm 1 mps 747 mmHg 36%
    12:00 +15°C° 0 mm 0 mps 747 mmHg 37%
    13:00 +15°C° 0 mm 0 mps 746 mmHg 37%
    14:00 +15°C° 0 mm 0 mps 746 mmHg 38%
    15:00 +15°C° 0 mm 0 mps 746 mmHg 39%
    16:00 +15°C° 0 mm 1 mps 745 mmHg 40%
    17:00 +14°C° 0 mm 1 mps 745 mmHg 44%
    18:00 +13°C° 0 mm 1 mps 745 mmHg 49%
    19:00 +12°C° 0 mm 1 mps 744 mmHg 53%
    20:00 +11°C° 0 mm 1 mps 744 mmHg 57%
    21:00 +10°C° 0 mm 1 mps 744 mmHg 61%
    22:00 +9°C° 0 mm 1 mps 744 mmHg 64%
    23:00 +9°C° 0 mm 1 mps 744 mmHg 66%
    Show more